Home   Weather   New Orleans   Past weeks

Flag for USA Past Weather in New Orleans, Louisiana, USA — Yesterday and Last 2 Weeks

Now
66 °F

Fog.


Feels Like: 66 °F
Forecast: 64 / 77 °F
Wind: 12 mph from Southeast

Location: Lakefront Airport

Current Time: Feb 20, 2017 at 12:26:56 am

Latest Report: Feb 20, 2017 at 12:05 am


Visibility: 6 mi

Pressure: 30.05 "Hg

Humidity: 100%

Dew Point: 66 °F

Location of New OrleansLocation

Past Weather in New Orleans — Graph

°F

New Orleans Temperature Yesterday

Maximum temperature yesterday: 76 °F (at 1:53 pm)
Minimum temperature yesterday: 60 °F (at 2:53 am)
Average temperature yesterday: 66 °F

High & Low Weather Summary for the Past Weeks

 TemperatureHumidityPressure
High80 °F (Feb 8, 12:53 pm)100% (Feb 6, 1:53 am)30.35 "Hg (Feb 6, 1:53 am)
Low49 °F (Feb 17, 6:53 am)38% (Feb 9, 3:53 pm)29.71 "Hg (Feb 14, 10:53 pm)
Average65 °F81%30.03 "Hg
* Reported Feb 4 10:53 pm — Feb 19 10:53 pm, New Orleans, Weather by CustomWeather, © 2017

Note: Actual official high and low records may vary slightly from our data, if they occured in-between our weather recording intervals... More about our weather records

Advertising

New Orleans Weather History for the Previous 24 Hours

Scroll right to see more
 ConditionsComfort  
Time TempWeatherWind HumidityBarometerVisibility
10:53 pm
Sun, Feb 19
67 °FFog.12 mph97%30.05 "Hg6 mi
10:23 pm67 °FPassing clouds.9 mph97%30.08 "Hg9 mi
9:53 pm66 °FClear.9 mph96%30.06 "Hg10 mi
8:53 pm67 °FClear.8 mph93%30.06 "Hg10 mi
7:53 pm67 °FClear.8 mph87%30.04 "Hg10 mi
6:53 pm68 °FClear.8 mph90%30.03 "Hg10 mi
5:53 pm70 °FClear.10 mph81%30.01 "Hg10 mi
4:53 pm72 °FSunny.14 mph76%30.02 "Hg10 mi
3:53 pm75 °FSunny.10 mph69%30.03 "Hg10 mi
2:53 pm75 °FSunny.10 mph71%30.02 "Hg10 mi
1:53 pm76 °FSunny.8 mph69%30.03 "Hg10 mi
12:53 pm75 °FSunny.8 mph69%30.04 "Hg10 mi
11:53 am72 °FSunny.9 mph78%30.06 "Hg10 mi
10:53 am69 °FScattered clouds.7 mph84%30.08 "Hg10 mi
10:34 am67 °FScattered clouds.8 mph87%30.10 "Hg10 mi
10:22 am66 °FScattered clouds.7 mph90%30.10 "Hg10 mi
10:00 am64 °FLow clouds.7 mph94%30.09 "Hg10 mi
9:30 am63 °FPartly sunny.7 mph97%30.09 "Hg10 mi
8:56 am62 °FFog.7 mph100%30.09 "Hg1 mi
8:29 am61 °FFog.9 mph100%30.08 "Hg0 mi
7:55 am62 °FFog.9 mph96%30.07 "Hg0 mi
7:34 am62 °FPassing clouds.7 mph100%30.06 "Hg7 mi
6:53 am61 °FFog.6 mph100%30.02 "Hg5 mi
5:53 am60 °FFog.5 mph100%29.99 "Hg6 mi
4:53 am60 °FClear.No wind100%29.97 "Hg8 mi
3:53 am61 °FClear.5 mph97%29.95 "Hg10 mi
2:53 am60 °FClear.6 mph96%29.95 "Hg10 mi
1:53 am61 °FClear.7 mph97%29.94 "Hg10 mi
12:53 am61 °FFog.9 mph100%29.94 "Hg6 mi
Weather by CustomWeather, © 2017

See weather overviewHow to use our weather pages